Location: Boiro
(42.6475°N, 8.8834°W)
Time: 18:21:49
(UTC+01:00)

Courier 1B Rocket - Visible Passes

Search period start: 06 December 2021 00:00
Search period end: 16 December 2021 00:00
Orbit: 920 x 1202 km, 28.2° (Epoch: 05 December)

Date Brightness Start Highest point End Pass type
(mag) Time Alt. Az. Time Alt. Az. Time Alt. Az.
08 Dec 7.4 21:06:30 10° S 21:06:43 10° S 21:06:43 10° S visible
10 Dec 7.0 20:55:37 10° SSW 20:58:44 16° S 20:58:44 16° S visible
11 Dec 7.1 19:55:46 10° S 19:58:54 13° SSE 20:01:33 11° SE visible
11 Dec 7.3 21:46:13 10° SW 21:47:55 15° SSW 21:47:55 15° SSW visible
12 Dec 6.8 20:45:32 10° SSW 20:50:34 20° SSE 20:50:42 20° SSE visible
13 Dec 7.0 19:45:07 10° SSW 19:49:43 17° SSE 19:53:29 12° SE visible
13 Dec 7.0 21:36:44 10° SW 21:39:51 20° SSW 21:39:51 20° SSW visible
14 Dec 7.3 18:45:08 10° S 18:48:51 14° SSE 18:52:30 10° SE visible
14 Dec 6.6 20:35:50 10° SW 20:41:26 23° S 20:42:37 22° SSE visible
14 Dec 7.7 22:28:39 10° WSW 22:29:00 11° SW 22:29:00 11° SW visible
15 Dec 6.9 19:35:06 10° SW 19:40:32 21° SSE 19:45:24 11° SE visible
15 Dec 6.8 21:27:27 10° SW 21:31:46 23° SSW 21:31:46 23° SSW visible
